User: anonymous   Login
Location: Mascot Post Office (historical)
(40.2645°N, 99.5462°W)
Time: 11:40:33
(UTC+00:00)
Language:

Cosmos 1953 Rocket - Orbit

View from above orbital plane
View from above orbital plane
View from above satellite
View from above satellite

Ground track
Ground track

The orbit data is extracted from the following two-line orbital elements,

1 19211U 88050B   20270.82443354 +.00000059 +00000-0 +42634-5 0  9997
2 19211 082.5283 162.2072 0023003 128.1805 298.8824 14.83078582723219
Epoch (UTC): 26 September 2020 19:47:11
Eccentricity: 0.0023003
inclination: 82.5283°
perigee height: 603 km
apogee height: 636 km
right ascension of ascending node: 162.2072°
argument of perigee: 128.1805°
revolutions per day: 14.83078582
mean anomaly at epoch: 298.8824°
orbit number at epoch: 72321

The dashed part of the orbit path shows where the satellite is in the earth's shadow,  

DLR